Weather History for Cheraw, SC

Change the Weather History Date:

Friday, October 19, 2012

  Actual Average (KFLO) Record (KFLO)
Temperature  
Mean Temperature 63 °F 63 °F  
Max Temperature 75 °F 75 °F 89 °F (1998)
Min Temperature 50 °F 52 °F 34 °F (1948)
Degree Days  
Heating Degree Days 2 4  
Month to date heating degree days 45  
Since 1 July heating degree days 54  
Cooling Degree Days 0 2  
Month to date cooling degree days 66  
Year to date cooling degree days 2022  
Growing Degree Days 13 (Base 50)    
Moisture  
Dew Point 50 °F    
Average Humidity 66    
Maximum Humidity 100    
Minimum Humidity 24    
Precipitation  
Precipitation 0.21 in 0.10 in 2.97 in (1968)
Month to date precipitation 2.05  
Year to date precipitation 36.20  
Sea Level Pressure  
Sea Level Pressure 29.78 in    
Wind  
Wind Speed 11 mph (SW)    
Max Wind Speed 33 mph    
Max Gust Speed 51 mph    
Visibility 9 miles    
Events Rain    
T = Trace of Precipitation, MM = Missing Value Source: NWS Daily Summary

Daily Weather History Graph

Daily Weather History Graph

Search for Another Location

Airport:

Trip Planner

Search our weather history database for the weather conditions in past years. The results will help you decide how hot, cold, wet, or windy it might be!

Date:

Astronomy

Oct. 19, 2012 Rise Set
Actual Time 7:29 AM EDT 6:39 PM EDT
Civil Twilight 7:03 AM EDT 7:05 PM EDT
Nautical Twilight 6:34 AM EDT 7:34 PM EDT
Astronomical Twilight 6:05 AM EDT 8:03 PM EDT
Moon 12:02 PM EDT (10/19) 10:24 PM EDT (10/19)
Length of Visible Light 12h 01m
Length of Day
11h 10m
Waxing Crescent, 23% of the Moon is Illuminated
Oct 19
Waxing Crescent
Oct 21
First Quarter
Oct 29
Full
Nov 6
Last Quarter
Nov 13
New

Hourly Weather History & Observations

Time (EDT) Temp. Dew Point Humidity Pressure Visibility Wind Dir Wind Speed Gust Speed Precip Events Conditions
2:35 AM 66.2 °F 66.2 °F 100% 29.77 in 8.0 mi SW 9.2 mph - N/A   Overcast
2:55 AM 66.2 °F 66.2 °F 100% 29.78 in 1.2 mi SW 10.4 mph - 0.20 in Rain Heavy Rain
3:15 AM 66.2 °F 66.2 °F 100% 29.76 in 5.0 mi SSW 11.5 mph 20.7 mph 0.01 in   Overcast
3:35 AM 64.4 °F 64.4 °F 100% 29.76 in 8.0 mi SW 8.1 mph - 0.01 in   Overcast
3:55 AM 64.4 °F 64.4 °F 100% 29.76 in 7.0 mi South 5.8 mph - 0.01 in   Mostly Cloudy
4:15 AM 64.4 °F 64.4 °F 100% 29.76 in 10.0 mi SW 9.2 mph - N/A   Mostly Cloudy
4:35 AM 64.4 °F 64.4 °F 100% 29.76 in 10.0 mi SSW 9.2 mph - N/A   Mostly Cloudy
4:55 AM 64.4 °F 64.4 °F 100% 29.76 in 10.0 mi SW 11.5 mph - N/A   Mostly Cloudy
5:15 AM 64.4 °F 64.4 °F 100% 29.76 in 10.0 mi SSW 8.1 mph - N/A   Scattered Clouds
5:35 AM 62.6 °F 62.6 °F 100% 29.76 in 7.0 mi SSW 6.9 mph - N/A   Clear
5:55 AM 62.6 °F 62.6 °F 100% 29.77 in 3.0 mi SW 8.1 mph - N/A   Clear
6:15 AM 62.6 °F 62.6 °F 100% 29.78 in 4.0 mi SSW 8.1 mph - N/A   Scattered Clouds
6:35 AM 62.6 °F 62.6 °F 100% 29.78 in 5.0 mi SSW 9.2 mph - N/A   Scattered Clouds
6:55 AM 62.6 °F 62.6 °F 100% 29.77 in 5.0 mi WSW 9.2 mph - N/A   Mostly Cloudy
7:15 AM 62.6 °F 62.6 °F 100% 29.78 in 6.0 mi WSW 9.2 mph 17.3 mph N/A   Mostly Cloudy
7:35 AM 62.6 °F 62.6 °F 100% 29.78 in 5.0 mi West 8.1 mph - N/A   Partly Cloudy
7:55 AM 60.8 °F 60.8 °F 100% 29.78 in 4.0 mi West 8.1 mph - N/A   Partly Cloudy
8:15 AM 60.8 °F 60.8 °F 100% 29.78 in 4.0 mi West 8.1 mph - N/A   Clear
8:35 AM 62.6 °F 62.6 °F 100% 29.79 in 5.0 mi WSW 10.4 mph - N/A   Clear
8:55 AM 62.6 °F 62.6 °F 100% 29.80 in 8.0 mi West 8.1 mph - N/A   Clear
9:15 AM 62.6 °F 62.6 °F 100% 29.80 in 10.0 mi WSW 13.8 mph - N/A   Clear
9:35 AM 64.4 °F 62.6 °F 94% 29.80 in 10.0 mi WSW 10.4 mph 19.6 mph N/A   Clear
9:55 AM 64.4 °F 62.6 °F 94% 29.81 in 10.0 mi WSW 12.7 mph - N/A   Clear
10:15 AM 66.2 °F 60.8 °F 83% 29.81 in 10.0 mi SSW 9.2 mph 17.3 mph N/A   Clear
10:35 AM 68.0 °F 59.0 °F 73% 29.81 in 10.0 mi SW 6.9 mph 16.1 mph N/A   Clear
10:55 AM 68.0 °F 57.2 °F 68% 29.82 in 10.0 mi SW 8.1 mph 18.4 mph N/A   Clear
11:15 AM 69.8 °F 51.8 °F 53% 29.82 in 10.0 mi SSW 12.7 mph 23.0 mph N/A   Clear
11:35 AM 71.6 °F 48.2 °F 43% 29.82 in 10.0 mi WSW 16.1 mph 21.9 mph N/A   Clear
11:55 AM 71.6 °F 42.8 °F 35% 29.82 in 10.0 mi WSW 18.4 mph 28.8 mph N/A   Clear
12:15 PM 73.4 °F 37.4 °F 27% 29.82 in 10.0 mi SW 23.0 mph 31.1 mph N/A   Clear
12:35 PM 73.4 °F 37.4 °F 27% 29.81 in 10.0 mi WSW 20.7 mph 31.1 mph N/A   Clear
12:55 PM 73.4 °F 37.4 °F 27% 29.81 in 10.0 mi SSW 9.2 mph 32.2 mph N/A   Clear
1:15 PM 73.4 °F 35.6 °F 25% 29.80 in 10.0 mi SW 29.9 mph 44.9 mph N/A   Clear
1:35 PM 73.4 °F 37.4 °F 27% 29.79 in 10.0 mi SW 15.0 mph 32.2 mph N/A   Clear
1:55 PM 75.2 °F 39.2 °F 27% 29.78 in 10.0 mi WSW 20.7 mph 31.1 mph N/A   Clear
2:15 PM 75.2 °F 37.4 °F 25% 29.77 in 10.0 mi SW 18.4 mph 33.4 mph N/A   Clear
2:35 PM 75.2 °F 35.6 °F 24% 29.76 in 10.0 mi SW 18.4 mph 38.0 mph N/A   Clear
2:55 PM 75.2 °F 35.6 °F 24% 29.76 in 10.0 mi SSW 33.4 mph 50.6 mph N/A   Clear
3:15 PM 75.2 °F 35.6 °F 24% 29.75 in 10.0 mi WSW 21.9 mph 38.0 mph N/A   Clear
3:35 PM 75.2 °F 35.6 °F 24% 29.75 in 10.0 mi SSW 19.6 mph 38.0 mph N/A   Clear
3:55 PM 75.2 °F 35.6 °F 24% 29.74 in 10.0 mi SSW 20.7 mph 34.5 mph N/A   Clear
4:15 PM 75.2 °F 35.6 °F 24% 29.74 in 10.0 mi SSW 20.7 mph 31.1 mph N/A   Clear
4:35 PM 75.2 °F 35.6 °F 24% 29.74 in 10.0 mi SW 17.3 mph 32.2 mph N/A   Clear
4:55 PM 73.4 °F 35.6 °F 25% 29.73 in 10.0 mi SW 16.1 mph 27.6 mph N/A   Clear
5:15 PM 73.4 °F 35.6 °F 25% 29.73 in 10.0 mi SW 19.6 mph 31.1 mph N/A   Clear
5:35 PM 73.4 °F 35.6 °F 25% 29.73 in 10.0 mi SW 17.3 mph 27.6 mph N/A   Clear
5:55 PM 71.6 °F 37.4 °F 29% 29.73 in 10.0 mi SW 18.4 mph 23.0 mph N/A   Clear
6:15 PM 69.8 °F 39.2 °F 33% 29.74 in 10.0 mi SW 8.1 mph - N/A   Clear
6:35 PM 66.2 °F 41.0 °F 40% 29.74 in 10.0 mi SW 5.8 mph - N/A   Clear
6:55 PM 60.8 °F 46.4 °F 59% 29.74 in 10.0 mi WSW 4.6 mph - N/A   Clear
7:15 PM 60.8 °F 44.6 °F 55% 29.75 in 10.0 mi SSW 4.6 mph - N/A   Clear
7:35 PM 57.2 °F 44.6 °F 63% 29.75 in 10.0 mi Calm Calm - N/A   Clear
7:55 PM 57.2 °F 42.8 °F 59% 29.76 in 10.0 mi Calm Calm - N/A   Clear
8:15 PM 55.4 °F 46.4 °F 72% 29.76 in 10.0 mi South 5.8 mph - N/A   Clear
8:35 PM 55.4 °F 46.4 °F 72% 29.77 in 10.0 mi SSW 3.5 mph - N/A   Clear
8:55 PM 53.6 °F 44.6 °F 72% 29.77 in 10.0 mi West 5.8 mph - N/A   Clear
9:15 PM 53.6 °F 46.4 °F 77% 29.78 in 10.0 mi South 3.5 mph - N/A   Clear
9:35 PM 53.6 °F 48.2 °F 82% 29.78 in 10.0 mi Calm Calm - N/A   Clear
10:15 PM 53.6 °F 44.6 °F 72% 29.80 in 10.0 mi WSW 8.1 mph - N/A   Clear
10:35 PM 51.8 °F 46.4 °F 82% 29.80 in 10.0 mi WSW 8.1 mph - N/A   Clear
10:55 PM 51.8 °F 46.4 °F 82% 29.81 in 10.0 mi SW 9.2 mph - N/A   Clear
11:15 PM 53.6 °F 44.6 °F 72% 29.81 in 8.0 mi WSW 10.4 mph - N/A   Clear
11:35 PM 53.6 °F 44.6 °F 72% 29.81 in 10.0 mi WSW 9.2 mph - N/A   Clear
11:55 PM 50.0 °F 46.4 °F 87% 29.81 in 10.0 mi SSW 3.5 mph - N/A   Clear